This is the latest recevied weather packets stored in our database for station/object DC1SK-6. If no packets are shown the sender has not sent any weather packets the latest 10 day(s).
| Time | Temp. | Humidity | Pressure | Rain* | Wind** | Luminosity | Snow |
|---|---|---|---|---|---|---|---|
| 1777744044 | 23.33° C | 46% | - | 0 mm | - | 26 W/m² | - |
| 1777743453 | 23.89° C | 44% | - | 0 mm | - | 33 W/m² | - |
| 1777742944 | 24.44° C | 42% | - | 0 mm | - | 38 W/m² | - |
| 1777742458 | 24.44° C | 34% | - | 0 mm | - | 47 W/m² | - |
| 1777741919 | 25° C | 36% | - | 0 mm | - | 50 W/m² | - |
| 1777741378 | 25° C | 33% | - | 0 mm | - | 53 W/m² | - |
| 1777740868 | 25° C | 35% | - | 0 mm | - | 58 W/m² | - |
| 1777740324 | 25.56° C | 37% | - | 0 mm | - | 66 W/m² | - |
| 1777739724 | 25.56° C | 37% | - | 0 mm | - | 64 W/m² | - |
| 1777739243 | 26.11° C | 36% | - | 0 mm | - | 120 W/m² | - |
| 1777738663 | 26.67° C | 34% | - | 0 mm | - | 121 W/m² | - |
| 1777738134 | 27.22° C | 30% | - | 0 mm | - | 132 W/m² | - |
| 1777737539 | 27.22° C | 31% | - | 0 mm | - | 187 W/m² | - |
| 1777737009 | 27.22° C | 28% | - | 0 mm | - | 213 W/m² | - |
| 1777736503 | 27.78° C | 26% | - | 0 mm | - | 233 W/m² | - |
| 1777735904 | 27.78° C | 28% | - | 0 mm | - | 270 W/m² | - |
| 1777735329 | 28.33° C | 28% | - | 0 mm | - | 283 W/m² | - |
| 1777734819 | 27.78° C | 26% | - | 0 mm | - | 346 W/m² | - |
| 1777734239 | 27.78° C | 28% | - | 0 mm | - | 405 W/m² | - |
| 1777733663 | 27.78° C | 26% | - | 0 mm | - | 396 W/m² | - |
| 1777733103 | 27.78° C | 29% | - | 0 mm | - | 389 W/m² | - |
| 1777732603 | 27.78° C | 29% | - | 0 mm | - | 389 W/m² | - |
| 1777732058 | 27.78° C | 29% | - | 0 mm | - | 505 W/m² | - |
| 1777731559 | 27.22° C | 30% | - | 0 mm | - | 505 W/m² | - |
| 1777730969 | 27.22° C | 30% | - | 0 mm | - | 505 W/m² | - |
* Rain latest hour (hover to see other rain measurements)
** Current wind speed in m/s (hover to see current wind gust speed)